Regional Weather Roundup
Issued by NWS

Home | Current Version | Previous Version | Graphics & Text | Print | Product List | Glossary On
Versions: 1 2 3 4 5 6 7 8 9 10 11 12 13 14 15 16 17 18 19 20 21 22 23 24 25 26 27 28 29 30 31 32 33 34 35 36 37 38 39 40 41 42 43 44 45 46 47 48 49 50
542
ASUS45 KCYS 160710
RWRWY

WYOMING REGIONAL WEATHER ROUNDUP
NATIONAL WEATHER SERVICE CHEYENNE WY
100 AM MDT WED AUG 16 2017

NOTE:  "FAIR" INDICATES FEW OR NO CLOUDS BELOW 12,000 FEET
WITH NO SIGNIFICANT WEATHER AND/OR OBSTRUCTIONS TO VISIBILITY.

WYZ001-160800-
YELLOWSTONE NATIONAL PARK

CITY           SKY/WX    TMP DP  RH WIND       PRES   REMARKS
LK YELLOWSTONE   N/A     37  36  96 CALM      30.23R
W YELLOWSTONE  NOT AVBL

$$
WYZ002>013-054>058-071-098>099-160800-
NORTHERN WYOMING

CITY           SKY/WX    TMP DP  RH WIND       PRES   REMARKS
JACKSON        FAIR      46  39  76 N3        30.15R
CODY           FAIR      59  44  57 SW8       30.04S
GREYBULL       FAIR      58  51  78 SE5       29.98R
WORLAND        FAIR      57  50  77 SE9       29.99R
SHERIDAN       FAIR      51  44  77 SW5       30.00R
BUFFALO        FAIR      56  39  53 W6        30.06R
GILLETTE       FAIR      51  47  86 SW3       30.02R
HULETT         FAIR      54  52  94 S6        30.03S
NEWCASTLE      FAIR      55  46  71 N5        30.02R

$$
WYZ014>020-022>026-101>103-160800-
CENTRAL WYOMING

CITY           SKY/WX    TMP DP  RH WIND       PRES   REMARKS
BIG PINEY      FAIR      45  39  79 VRB6      30.17S
PINEDALE       FAIR      43  41  93 CALM      30.19S
DUBOIS         FAIR      43  37  81 NW13      30.17S
LANDER           N/A    N/A N/A N/A MISG      30.07S
RIVERTON       FAIR      53  45  74 NW6       30.08R
CASPER         FAIR      49  47  93 CALM      30.08F
DOUGLAS        FAIR      53  51  93 N6        30.07R

$$
WYZ021-027>030-104>119-160800-
SOUTHERN WYOMING

CITY           SKY/WX    TMP DP  RH WIND       PRES   REMARKS
EVANSTON       FAIR      52  37  56 SE9       30.17F
KEMMERER         N/A     52  39  62 CALM      30.18S
FORT BRIDGER   FAIR      51  46  84 S10       30.20S
ROCK SPRINGS   MOCLDY    51  46  83 S8        30.14F
RAWLINS        CLOUDY    51  45  79 NE5       30.16R
SARATOGA       CLOUDY    50  50 100 SW6       30.17F
LARAMIE        FAIR      47  43  86 E6        30.16R
CHEYENNE       FAIR      54  44  69 NW10      30.07S
TORRINGTON     CLOUDY    59  56  89 N9        29.99S
PINE BLUFFS    FAIR      55  48  76 NW10      30.03S

$$




USA.gov is the U.S. government's official web portal to all federal, state and local government web resources and services.